Temperature
29 30 30 30 30 31 30 30 30 30 29 29 29 28 28 27 26 26 25 24 24 23 23 23 23 23 22 22 22 21 21 20 20 20 19 19 19 19 19 19 19 19 18 18
27 29 30 30 30 30 30 30 30 30 29 29 28 27 27 26 26 25 24 23 22 22 22 22 21 21 21 21 21 21 20 20 19 19 19 19 19 19 18 18 18 18 18 18
26 28 28 28 29 30 30 30 30 29 28 28 27 27 26 26 25 24 24 23 22 22 21 21 21 20 20 20 20 20 20 19 19 19 19 19 18 18 18 18 18 18 18 17
25 25 25 27 30 30 29 29 29 29 28 27 27 25 25 25 24 23 23 22 22 21 21 21 20 20 20 20 19 19 19 19 19 19 18 18 18 18 18 18 18 18 17 17
24 25 26 27 28 28 27 27 28 27 27 26 25 25 24 23 23 22 22 21 21 21 20 20 20 19 19 19 19 18 18 18 18 18 18 18 18 18 17 17 17 17 17 17
24 23 24 25 27 27 27 25 26 26 25 25 25 24 23 22 22 21 21 20 20 20 19 19 19 19 18 18 18 18 18 17 17 17 17 17 17 17 17 17 17 16 16 16
23 23 24 25 26 27 24 23 24 24 24 23 23 22 21 21 21 20 20 20 19 19 19 18 18 18 18 17 17 17 17 17 17 17 17 17 16 16 16 16 16 16 16 16
23 23 23 24 25 24 23 23 23 23 22 22 21 21 20 20 20 19 19 18 18 18 18 17 17 17 17 17 16 16 16 16 16 16 16 16 16 16 16 16 16 16 15 15
22 22 22 22 22 22 22 22 22 22 21 20 20 20 20 19 19 18 18 18 17 17 17 16 16 16 16 16 16 16 16 16 16 16 16 16 15 15 15 15 15 15 15 15
21 21 21 21 21 21 21 21 21 20 20 20 19 19 19 18 18 17 17 17 17 16 16 16 15 15 15 15 15 15 15 15 15 15 15 15 15 15 15 15 14 14 14 14
19 20 20 20 20 20 20 20 20 19 19 19 18 18 18 17 17 16 16 16 16 16 15 15 15 15 15 15 14 14 14 14 14 14 14 14 14 14 14 14 14 14 14 13
19 19 19 19 19 19 19 19 19 18 18 18 18 17 17 16 16 16 16 15 15 15 15 15 14 14 14 14 14 14 14 13 13 13 14 14 14 14 14 14 14 14 13 13
18 18 18 18 18 18 18 18 18 18 17 17 17 16 16 16 15 15 15 15 15 14 14 14 14 14 13 13 13 13 13 13 13 13 13 13 13 13 13 13 13 13 13 13
17 17 17 17 17 17 17 17 17 17 17 16 16 16 15 15 15 14 14 14 14 14 14 13 13 13 13 13 13 13 13 13 13 13 13 13 13 13 13 13 13 13 13 12
17 17 17 16 16 16 16 16 16 16 16 15 15 15 15 14 14 14 14 13 13 13 13 13 13 12 12 12 12 12 12 12 12 12 12 12 12 12 12 12 12 12 12 12
16 16 16 16 16 16 16 15 15 15 15 15 14 14 14 14 13 13 13 13 13 12 12 12 12 12 12 12 12 12 12 12 12 12 12 12 12 12 12 12 11 11 11 11
16 16 16 16 15 15 15 15 15 14 14 14 14 14 13 13 13 13 12 12 12 12 12 11 11 11 11 11 11 11 11 12 12 11 11 11 11 11 11 11 11 11 11 10
15 15 15 15 15 15 15 15 14 14 14 13 13 13 13 13 12 12 12 12 12 11 11 11 11 11 11 11 11 11 11 11 11 11 11 11 11 11 11 11 10 10 10 10
15 15 15 15 14 14 14 14 14 13 13 13 13 13 12 12 12 12 11 11 11 11 11 11 11 11 11 11 11 11 11 11 11 11 11 11 10 10 10 10 10 10 10 10
14 14 14 14 14 13 13 13 13 13 12 12 12 12 12 12 12 11 11 11 11 11 11 11 11 10 10 11 11 10 10 11 11 10 10 10 10 10 10 10 10 9 9 9
14 14 14 13 13 13 13 12 12 12 12 12 12 11 11 11 11 11 11 11 11 11 10 10 10 10 10 10 10 10 10 10 10 10 10 10 10 10 9 9 9 9 9 9
13 13 13 13 13 12 12 12 12 12 11 11 11 11 11 11 11 11 11 10 10 10 10 10 10 10 10 10 10 10 10 10 10 10 10 10 9 9 9 9 9 9 9 9
13 13 13 12 12 12 12 12 11 11 11 11 11 11 11 11 11 11 10 10 10 10 10 10 10 10 10 10 10 10 10 10 10 10 9 9 9 9 9 9 9 9 8 8
12 12 12 12 12 12 12 12 11 11 11 11 11 11 11 11 11 11 10 10 10 10 10 10 10 10 10 10 10 10 10 10 9 9 9 9 9 9 9 9 9 8 8 8
12 12 12 12 12 12 12 12 11 11 11 11 11 11 11 11 11 11 10 10 10 10 10 10 10 10 10 10 10 10 9 9 9 9 9 9 9 9 9 9 8 8 8 8
12 12 12 12 12 12 12 12 12 12 12 12 11 11 11 11 11 11 10 10 10 10 10 10 10 10 10 10 10 9 9 9 9 9 9 9 9 9 9 8 8 8 8 7
12 12 12 12 12 12 12 12 12 12 12 12 12 12 11 11 11 11 11 11 11 10 10 10 10 10 10 10 10 10 9 9 9 9 9 9 9 8 8 8 8 8 8 7
Wind_Speed
19 19 18 16 16 16 16 15 15 11 7 4 3 4 4 5 6 5 5 6 6 6 5 4 4 4 3 3 4 5 6 6 5 5 4 4 5 4 4 4 5 4 5 5
18 19 19 18 17 17 15 15 16 12 8 2 4 4 4 5 5 5 4 4 5 5 5 5 4 3 3 2 2 3 4 4 4 3 4 4 3 3 3 3 4 4 4 5
17 18 19 19 16 15 13 12 12 11 6 2 2 3 3 5 4 4 3 3 4 4 4 3 3 2 2 2 2 3 3 3 3 3 3 2 3 3 4 4 4 4 4 4
14 15 19 13 10 11 10 10 8 5 2 1 2 4 3 4 4 3 3 3 3 3 3 2 2 2 2 3 2 1 2 2 2 2 2 2 3 3 3 3 3 4 4 4
13 16 17 12 8 7 8 8 6 3 1 1 3 4 4 4 4 4 4 3 3 3 3 3 3 3 3 3 2 1 2 2 2 2 2 2 2 2 2 2 2 3 3 3
14 16 15 9 6 6 6 7 3 2 1 1 2 3 1 4 5 5 4 3 4 4 4 3 4 4 2 1 2 1 1 1 2 2 1 1 1 1 1 1 2 2 2 2
17 17 12 8 8 7 8 3 4 3 2 2 2 3 3 4 4 4 3 3 3 3 3 3 3 3 2 1 1 1 2 2 1 1 0 0 1 1 1 2 2 2 2 2
13 15 11 7 6 3 3 4 4 5 5 5 5 6 4 3 3 3 3 3 3 3 3 3 3 2 2 3 3 2 3 2 2 2 1 1 1 1 1 2 2 2 2 2
6 5 2 5 5 4 4 3 4 4 5 4 3 3 2 2 2 2 2 2 2 2 3 3 2 2 2 2 2 2 2 2 1 1 1 1 1 2 1 2 2 2 2 2
6 4 4 3 3 4 5 5 4 5 4 3 2 2 2 3 3 3 2 2 1 1 2 2 2 2 2 2 2 1 1 0 0 0 0 0 1 2 2 1 1 1 2 2
7 7 5 4 4 4 3 2 2 3 3 3 2 2 2 2 2 2 1 1 1 1 1 1 1 1 1 2 2 1 0 1 1 1 1 0 1 2 1 1 1 2 2 2
7 5 4 5 4 3 3 2 2 2 3 3 2 2 2 2 2 2 2 1 2 2 1 1 1 1 2 2 2 1 0 1 2 2 1 1 0 1 4 2 1 1 2 3
6 6 5 6 7 4 3 3 3 3 3 2 2 2 2 1 1 1 1 1 1 1 0 1 1 2 1 1 1 1 0 2 2 2 1 1 1 1 0 1 1 1 1 1
6 5 6 6 6 5 4 3 4 4 2 2 2 2 2 1 1 1 1 1 1 1 1 1 1 2 2 1 1 0 1 2 2 1 2 2 1 1 1 1 1 1 1 0
5 5 5 5 5 5 4 3 3 2 2 2 2 1 0 1 1 1 2 2 2 2 2 2 3 2 2 2 2 2 2 2 2 2 2 2 2 1 1 1 1 1 1 1
3 4 4 4 4 3 3 3 2 2 2 1 1 0 1 1 1 2 2 2 2 2 3 3 2 2 2 2 2 2 1 1 2 3 3 2 2 2 2 1 1 0 1 1
3 4 4 4 3 4 4 3 2 1 1 1 1 1 1 1 2 2 2 3 2 2 2 2 2 2 2 3 3 3 2 2 2 3 2 2 2 2 2 2 2 1 1 1
4 3 3 2 2 1 0 1 1 1 1 1 1 1 2 2 2 2 2 2 2 2 2 2 2 2 2 3 3 3 3 2 2 2 1 1 2 2 2 2 2 2 2 2
0 0 0 0 1 1 1 1 1 1 1 1 1 2 2 2 2 2 1 1 1 1 2 3 2 2 2 2 3 2 3 2 1 1 1 0 1 2 2 2 2 2 3 2
1 1 2 3 3 2 2 1 2 2 2 2 2 2 3 2 2 1 1 1 2 2 2 2 2 2 2 2 3 2 2 2 2 1 1 1 1 2 2 2 2 2 3 3
2 3 3 3 3 3 3 2 2 3 3 3 2 2 2 2 1 1 0 1 2 2 2 2 2 2 2 3 3 2 2 1 1 1 1 1 1 2 2 2 2 2 2 2
3 3 3 3 3 3 3 3 3 3 3 2 2 2 1 1 1 1 1 1 1 1 1 1 1 3 4 4 2 2 2 1 1 1 1 1 1 1 1 2 2 2 2 2
3 4 4 4 4 4 4 4 3 3 2 2 1 1 1 1 1 1 1 1 1 1 2 2 3 3 4 3 2 1 1 1 1 2 2 1 1 1 1 2 2 1 1 2
3 4 5 4 3 4 4 3 3 3 3 2 1 1 0 0 1 1 2 3 3 1 1 2 1 2 2 1 1 1 1 1 0 0 1 1 1 1 1 1 1 1 2 2
3 3 3 2 2 3 3 3 3 3 3 2 2 1 1 2 2 2 3 2 2 1 1 1 1 2 1 2 2 2 2 2 1 1 1 1 2 1 1 1 2 2 2 1
2 2 2 1 2 1 1 1 1 1 1 2 1 1 2 2 2 2 1 1 2 1 1 1 1 2 1 1 1 1 1 1 1 1 1 1 1 1 1 1 1 1 1 1
2 2 1 1 1 1 1 1 2 2 2 2 1 1 1 2 2 1 1 0 1 0 0 1 1 1 1 1 1 1 1 1 1 2 1 1 1 1 1 1 1 0 1 0
Wind_Direction
272 275 275 265 260 251 246 253 260 265 252 206 142 112 110 113 106 96 83 70 70 72 70 69 71 83 102 128 140 156 161 174 186 190 186 194 197 196 199 203 214 215 225 230
275 270 272 266 260 254 249 250 257 259 256 200 123 123 134 125 120 116 102 88 78 74 68 61 55 59 69 97 111 129 147 157 157 167 172 184 189 186 194 211 222 220 221 226
270 272 273 258 256 257 255 255 258 262 261 189 143 112 128 130 121 115 110 107 96 87 85 74 59 65 85 77 90 103 113 121 142 163 175 182 196 190 199 209 217 222 222 228
267 268 260 264 267 265 262 268 263 262 257 175 111 91 90 98 119 125 112 96 86 88 92 98 79 78 90 95 89 114 121 133 139 158 167 181 196 204 211 214 217 229 228 228
260 260 257 254 269 276 274 272 295 311 335 157 125 121 110 81 79 96 88 76 76 73 70 67 65 59 75 97 120 139 115 95 86 100 149 190 211 222 222 215 214 224 228 221
253 258 261 264 280 288 278 265 336 27 84 115 154 212 157 78 74 69 69 70 68 63 59 57 56 58 59 80 100 100 93 86 89 82 86 222 196 224 224 211 216 222 227 221
247 254 256 284 296 282 257 264 9 21 55 69 69 59 84 77 71 68 69 69 67 65 56 56 53 59 46 40 53 55 66 67 72 73 55 163 144 171 211 224 209 212 224 227
247 252 256 328 314 313 29 42 37 42 56 61 70 82 80 72 68 71 64 64 64 67 66 60 53 67 57 45 36 49 63 59 46 33 329 36 80 227 213 228 242 219 226 248
277 268 352 13 11 24 37 33 45 53 56 64 68 75 69 57 54 57 66 64 59 69 77 69 67 84 81 50 44 53 63 58 35 25 21 22 305 272 242 217 240 247 235 238
281 278 308 335 357 2 9 17 37 53 48 51 51 46 36 27 19 24 48 53 50 87 99 85 70 63 66 71 73 76 94 67 293 217 222 278 284 283 283 276 247 255 274 275
279 271 293 313 334 336 332 341 16 36 29 22 31 35 22 19 9 15 42 21 23 99 120 116 99 90 84 89 86 75 44 306 284 271 245 336 343 339 312 326 264 248 267 268
278 284 289 306 330 330 326 329 3 9 358 358 4 349 349 3 29 41 49 70 65 60 76 100 94 80 74 88 92 83 320 288 289 282 245 170 103 24 27 6 30 201 241 257
284 298 293 295 308 308 314 326 328 320 314 328 344 333 321 353 15 27 22 42 69 88 127 103 91 77 57 75 91 105 269 285 291 296 288 274 249 227 269 351 10 340 264 242
279 283 280 282 291 296 290 294 302 305 317 331 320 317 322 342 329 354 345 16 7 7 12 53 64 57 47 37 44 5 300 302 299 283 276 282 284 282 278 276 308 340 336 235
271 264 265 279 290 291 287 280 282 291 307 317 298 274 318 321 332 23 22 24 29 28 26 41 41 27 24 19 2 335 321 319 333 320 304 298 298 300 298 300 314 14 20 353
270 261 252 256 266 268 268 266 264 286 304 291 301 82 113 102 57 41 32 23 37 28 28 33 30 18 12 359 343 312 289 293 282 291 292 296 297 306 312 311 318 14 332 331
266 253 247 254 250 249 244 238 243 314 19 35 56 47 45 68 77 64 43 29 43 46 44 44 20 7 350 335 312 298 299 289 273 280 287 302 311 305 303 311 325 329 324 335
248 243 238 242 259 271 303 98 81 54 42 38 63 57 56 69 77 73 57 42 45 38 37 44 17 347 344 339 323 309 300 289 281 293 313 333 328 314 316 317 316 315 311 313
230 133 175 61 31 26 54 80 82 66 46 36 62 77 79 88 92 79 57 34 24 23 27 25 357 312 313 339 319 286 281 286 293 306 305 316 301 310 321 319 310 309 304 302
78 90 96 83 74 71 51 48 75 75 67 66 76 77 73 59 67 78 79 42 14 22 23 355 321 316 326 351 331 314 315 317 327 334 325 316 318 318 313 310 315 315 310 310
70 89 92 91 94 94 89 76 89 86 78 77 81 81 84 74 47 41 86 70 74 50 8 333 314 325 1 352 314 311 312 334 358 353 327 324 306 301 305 311 307 299 299 306
66 92 94 91 86 82 85 95 92 85 77 72 76 79 88 92 74 61 64 69 87 45 329 326 9 34 10 333 315 320 325 344 343 326 308 304 287 284 289 293 297 302 318 335
71 83 88 86 91 90 90 91 91 97 105 100 85 66 34 11 9 59 63 60 77 352 327 23 45 31 347 316 328 311 293 311 314 301 304 303 304 314 318 314 318 321 335 334
75 84 85 82 90 102 106 107 113 131 137 136 132 124 104 79 63 80 97 88 64 38 30 81 64 344 314 329 330 329 343 350 304 283 333 344 342 336 339 335 356 15 8 348
79 84 93 113 112 110 121 139 146 150 150 139 137 115 79 62 65 69 82 90 112 144 137 139 217 279 311 341 359 14 17 10 1 358 349 338 329 337 344 347 5 8 356 357
89 83 81 56 52 77 129 124 105 96 99 104 103 87 76 88 108 117 119 127 138 176 230 206 207 221 254 310 338 354 10 26 2 303 323 319 320 324 331 335 1 358 342 347
125 116 115 97 92 82 73 76 77 79 74 68 67 72 72 86 104 109 115 136 167 187 243 248 236 233 256 278 303 304 323 1 6 8 9 1 351 350 342 342 354 359 309 300
Height
1436 1429 1426 1427 1426 1425 1430 1433 1439 1438 1438 1437 1437 1440 1444 1447 1450 1453 1455 1457 1459 1460 1462 1463 1464 1466 1468 1470 1472 1473 1474 1477 1479 1482 1485 1487 1489 1490 1491 1493 1494 1495 1496 1497
1441 1431 1427 1427 1424 1423 1425 1427 1430 1432 1436 1433 1438 1442 1446 1448 1451 1454 1457 1459 1460 1461 1462 1464 1465 1466 1467 1469 1470 1472 1473 1475 1477 1479 1481 1483 1485 1486 1488 1489 1490 1491 1492 1493
1448 1435 1431 1434 1425 1422 1423 1421 1426 1433 1434 1434 1438 1442 1446 1448 1451 1455 1458 1459 1460 1461 1462 1464 1466 1466 1467 1468 1470 1470 1471 1473 1475 1477 1478 1480 1481 1482 1483 1485 1486 1487 1488 1489
1448 1446 1454 1431 1417 1419 1423 1424 1423 1427 1431 1435 1439 1445 1449 1451 1453 1455 1458 1459 1460 1461 1462 1463 1465 1465 1466 1467 1469 1470 1470 1472 1473 1474 1475 1477 1478 1479 1480 1482 1483 1484 1484 1485
1449 1448 1439 1429 1423 1423 1427 1430 1427 1429 1433 1436 1440 1445 1450 1452 1454 1456 1458 1460 1460 1461 1462 1463 1464 1465 1466 1467 1468 1469 1470 1470 1471 1472 1473 1474 1475 1476 1477 1478 1478 1479 1480 1481
1447 1451 1449 1435 1424 1424 1428 1437 1431 1434 1436 1439 1441 1446 1451 1453 1455 1456 1458 1459 1460 1461 1462 1462 1462 1463 1465 1466 1467 1468 1468 1469 1470 1470 1471 1471 1472 1474 1474 1474 1474 1475 1476 1477
1444 1445 1439 1431 1427 1427 1440 1443 1437 1437 1439 1441 1444 1448 1452 1453 1456 1458 1459 1459 1459 1460 1461 1461 1462 1462 1464 1465 1466 1466 1467 1468 1468 1468 1469 1469 1470 1470 1471 1471 1471 1472 1473 1473
1439 1445 1445 1433 1430 1435 1440 1438 1439 1440 1442 1445 1447 1449 1452 1454 1456 1458 1458 1458 1459 1459 1460 1460 1461 1462 1463 1463 1464 1465 1465 1465 1466 1466 1467 1468 1468 1468 1468 1468 1468 1468 1469 1470
1439 1443 1440 1438 1438 1439 1439 1440 1441 1443 1445 1447 1449 1451 1453 1455 1456 1457 1457 1458 1458 1459 1459 1460 1461 1461 1462 1463 1463 1463 1463 1464 1464 1464 1465 1465 1465 1466 1466 1466 1467 1467 1467 1467
1439 1440 1440 1440 1440 1441 1441 1443 1443 1445 1447 1448 1450 1452 1453 1454 1455 1456 1456 1457 1458 1458 1459 1459 1460 1460 1460 1461 1461 1461 1462 1462 1462 1462 1462 1463 1463 1463 1464 1464 1464 1464 1464 1465
1442 1441 1442 1442 1442 1443 1443 1445 1445 1446 1448 1449 1450 1451 1453 1454 1454 1454 1455 1456 1457 1457 1457 1458 1458 1459 1459 1459 1459 1460 1460 1460 1460 1460 1460 1461 1461 1461 1461 1461 1461 1462 1462 1462
1441 1441 1442 1444 1443 1444 1444 1445 1446 1447 1448 1449 1450 1451 1452 1453 1453 1453 1454 1455 1455 1455 1456 1457 1457 1457 1457 1457 1457 1457 1457 1458 1458 1459 1459 1458 1458 1458 1458 1459 1458 1458 1459 1459
1440 1441 1442 1444 1444 1444 1444 1445 1446 1447 1448 1449 1450 1451 1452 1452 1453 1453 1453 1453 1453 1454 1455 1455 1455 1455 1455 1455 1455 1455 1456 1456 1456 1457 1457 1456 1456 1456 1456 1456 1456 1456 1456 1456
1440 1441 1441 1442 1442 1443 1443 1444 1446 1446 1447 1448 1449 1450 1450 1451 1452 1451 1452 1452 1452 1452 1453 1453 1453 1453 1453 1454 1454 1454 1454 1455 1455 1455 1455 1455 1454 1454 1454 1454 1453 1453 1453 1453
1437 1439 1440 1440 1441 1441 1442 1443 1444 1445 1446 1447 1447 1448 1449 1450 1450 1450 1450 1450 1450 1451 1451 1451 1451 1451 1451 1452 1452 1453 1453 1453 1453 1453 1453 1453 1453 1452 1452 1451 1451 1450 1450 1450
1437 1438 1439 1439 1439 1440 1441 1442 1443 1444 1445 1445 1446 1447 1447 1448 1448 1449 1449 1449 1449 1449 1450 1450 1450 1451 1451 1451 1450 1451 1451 1451 1452 1451 1451 1451 1451 1450 1450 1449 1448 1448 1447 1447
1435 1436 1437 1438 1438 1439 1440 1441 1442 1443 1444 1445 1446 1446 1446 1447 1447 1448 1449 1449 1449 1449 1449 1449 1449 1449 1450 1449 1449 1450 1450 1449 1449 1449 1449 1449 1449 1448 1448 1447 1447 1446 1446 1445
1435 1436 1436 1437 1438 1438 1439 1441 1442 1443 1444 1445 1445 1445 1445 1445 1446 1448 1448 1449 1449 1449 1449 1449 1448 1448 1448 1448 1448 1448 1447 1447 1447 1447 1447 1447 1446 1446 1446 1445 1445 1445 1444 1444
1434 1435 1436 1437 1438 1438 1439 1441 1442 1443 1444 1444 1445 1445 1445 1446 1447 1447 1448 1448 1448 1448 1448 1448 1447 1447 1446 1446 1446 1445 1445 1445 1445 1445 1445 1445 1444 1444 1444 1444 1443 1443 1442 1442
1434 1435 1436 1437 1438 1439 1440 1441 1442 1443 1444 1444 1444 1445 1445 1446 1446 1447 1447 1448 1448 1448 1447 1447 1446 1445 1445 1444 1444 1443 1443 1443 1443 1443 1443 1443 1442 1442 1442 1442 1441 1441 1440 1439
1435 1435 1436 1437 1438 1439 1440 1441 1442 1443 1444 1444 1445 1445 1446 1446 1446 1447 1447 1447 1447 1447 1446 1445 1444 1444 1443 1442 1442 1442 1441 1441 1441 1441 1441 1441 1441 1441 1440 1439 1439 1439 1438 1437
1435 1436 1437 1438 1439 1440 1440 1442 1443 1443 1444 1444 1445 1445 1446 1446 1446 1446 1447 1447 1446 1445 1445 1444 1443 1442 1442 1441 1441 1440 1440 1440 1440 1440 1439 1439 1439 1439 1438 1438 1437 1437 1436 1436
1437 1437 1438 1439 1439 1440 1441 1442 1443 1444 1444 1445 1445 1445 1446 1446 1446 1446 1446 1446 1445 1444 1444 1443 1442 1441 1441 1440 1440 1440 1439 1439 1439 1439 1438 1438 1438 1437 1437 1436 1436 1435 1434 1434
1438 1439 1439 1440 1441 1441 1442 1443 1444 1445 1445 1446 1446 1446 1446 1446 1446 1446 1445 1445 1445 1444 1443 1443 1442 1441 1440 1440 1439 1439 1439 1438 1438 1438 1437 1437 1437 1436 1436 1435 1434 1433 1433 1432
1439 1440 1440 1441 1441 1442 1443 1444 1444 1445 1446 1446 1446 1446 1446 1446 1446 1446 1445 1445 1445 1444 1443 1443 1442 1442 1441 1440 1440 1439 1439 1438 1438 1437 1437 1436 1436 1435 1434 1434 1433 1432 1432 1431
1441 1441 1442 1442 1443 1444 1444 1444 1445 1445 1446 1446 1446 1446 1447 1446 1446 1446 1446 1445 1445 1444 1444 1443 1443 1442 1441 1441 1440 1439 1439 1438 1437 1437 1436 1436 1435 1434 1433 1433 1432 1431 1430 1430
1443 1443 1443 1443 1444 1444 1445 1445 1445 1446 1446 1447 1447 1447 1447 1447 1447 1446 1446 1445 1445 1444 1444 1443 1443 1442 1442 1441 1440 1440 1439 1438 1437 1436 1436 1435 1434 1433 1432 1432 1431 1430 1430 1429